Temperature
30 31 31 32 32 31 31 31 31 31 31 31 31 30 30 28 27 27 26 25 24 23 23 22 21 21 20 20 20 20 19 19 19 19 19 19 19 19 18 19 18 18 18 18
31 31 32 32 31 31 31 31 31 31 31 30 31 31 30 29 28 27 26 26 25 24 23 22 21 21 21 20 20 20 20 19 19 19 19 19 19 19 19 19 18 18 18 18
31 32 31 31 31 31 31 31 31 31 30 31 31 30 30 30 28 27 27 26 26 25 24 23 22 21 21 21 20 20 20 20 19 19 19 19 19 19 19 19 18 18 18 18
31 32 31 31 31 31 31 32 31 31 30 31 31 30 30 30 29 29 28 27 26 25 24 23 22 22 21 21 20 20 20 20 20 19 19 19 19 19 19 19 19 19 18 18
31 31 31 31 31 31 31 31 31 31 31 31 31 30 31 31 30 29 29 27 27 26 25 24 23 22 22 21 21 20 20 20 20 20 19 19 19 19 19 19 19 19 18 18
31 32 31 31 31 31 31 31 30 31 31 30 30 30 30 31 30 30 29 27 26 26 25 24 23 23 22 21 21 20 20 20 20 20 19 19 19 19 19 19 19 19 19 19
31 31 31 31 31 31 31 30 30 30 30 30 30 30 30 30 30 29 29 27 26 26 25 24 24 23 22 22 21 20 20 20 20 20 20 20 19 19 19 19 19 19 19 19
30 30 31 31 31 31 31 31 30 29 29 30 30 30 30 30 29 28 28 27 26 26 25 24 23 23 22 22 21 20 20 20 20 20 20 20 19 19 19 19 18 18 18 18
31 30 31 31 31 31 31 31 32 31 30 30 30 30 30 30 29 28 28 27 26 25 25 24 23 23 22 21 21 20 20 20 20 20 20 20 19 19 19 18 18 18 18 18
31 30 31 30 31 30 31 31 31 30 29 29 29 30 30 29 28 28 28 27 26 25 24 24 23 22 22 22 21 20 20 20 20 19 19 19 19 19 19 18 18 18 18 18
31 30 30 30 30 30 30 30 30 30 30 29 29 29 30 29 28 28 27 26 25 25 24 23 23 22 22 21 21 20 20 20 20 20 19 19 19 19 19 18 18 18 18 18
30 30 30 30 30 30 30 30 30 29 29 29 29 29 29 29 28 27 27 25 24 24 24 23 22 22 22 21 21 20 20 20 20 20 19 19 19 19 18 18 18 18 18 18
29 29 28 29 29 29 29 30 30 30 30 29 29 29 29 28 27 27 26 25 23 23 23 23 22 21 21 21 21 20 20 20 20 19 19 19 19 18 18 18 18 18 18 18
28 29 29 29 29 30 29 29 29 29 30 29 29 29 28 27 27 26 25 24 23 22 22 22 21 21 21 20 20 20 20 19 19 19 19 19 18 18 18 18 18 17 17 17
28 28 29 29 30 30 29 29 29 29 29 29 29 29 28 27 27 25 24 23 23 22 22 21 21 20 20 20 20 19 19 19 19 19 19 18 18 18 18 18 17 17 17 17
27 28 28 28 29 29 29 29 29 28 29 29 29 28 28 27 25 24 23 23 22 22 21 21 20 20 20 19 19 19 19 19 19 18 18 18 18 18 17 17 17 17 17 17
27 26 27 28 28 28 28 28 28 28 28 28 28 28 27 26 25 24 23 22 22 21 21 20 20 20 19 19 19 19 19 18 18 18 18 17 17 17 17 17 17 16 16 16
25 25 26 27 27 26 28 28 28 28 27 27 27 27 26 25 24 23 22 22 21 21 20 20 20 19 19 19 19 18 18 18 18 18 17 17 17 17 16 16 16 16 16 16
25 25 26 26 26 27 27 27 27 27 26 27 26 26 25 24 23 23 21 21 20 20 19 19 19 19 19 18 18 18 18 18 17 17 17 16 16 16 16 16 16 16 15 15
24 24 25 26 25 26 27 26 26 26 26 26 25 25 24 24 25 24 21 20 20 19 19 18 18 18 18 18 18 18 17 17 17 16 16 16 16 16 15 15 15 15 15 15
24 24 25 25 25 26 25 25 25 25 25 24 24 24 23 24 24 22 20 19 19 18 18 18 17 17 17 17 17 17 16 16 16 16 16 16 15 15 15 15 15 15 14 14
24 25 24 25 25 25 24 24 25 24 23 23 22 22 22 22 21 20 19 18 18 18 17 17 17 16 16 16 16 16 16 16 15 15 15 15 15 15 15 14 14 14 14 14
24 24 25 25 24 22 21 22 21 21 21 21 21 21 21 20 20 19 18 18 17 17 17 16 16 16 16 16 15 15 15 15 15 15 14 14 14 14 14 14 14 14 14 14
22 21 22 22 23 21 21 20 20 20 20 20 20 20 20 19 19 19 18 17 17 16 16 16 15 15 15 15 15 15 15 14 14 14 14 14 14 14 14 13 13 13 13 13
22 21 22 21 22 21 20 19 19 19 19 19 19 19 19 18 18 18 17 16 16 16 15 15 15 15 14 14 14 14 14 14 14 13 13 13 13 13 13 13 13 12 12 12
21 21 21 22 21 21 20 18 18 18 18 18 18 18 18 17 17 17 16 16 15 15 15 15 14 14 14 14 14 13 13 13 13 13 13 13 13 13 12 12 12 12 12 12
Wind_Speed
5 7 6 4 4 4 4 3 2 1 1 3 3 3 4 8 9 9 10 11 11 11 12 12 12 12 12 11 11 10 10 9 7 6 5 5 5 4 4 4 4 5 5 4
7 7 3 2 3 4 5 4 2 2 1 3 3 3 4 7 9 10 10 11 12 11 11 12 12 13 13 13 12 11 10 9 8 6 5 4 3 3 3 3 3 5 5 5
9 3 3 4 6 7 6 5 3 2 2 5 4 4 5 7 8 8 9 10 11 11 12 13 13 13 13 13 13 11 11 10 9 8 6 4 4 4 4 4 4 4 5 5
8 4 5 7 7 7 6 3 4 4 5 3 3 4 3 5 7 8 9 10 10 11 12 12 14 14 14 14 13 11 10 10 9 9 8 8 6 5 4 4 3 4 5 5
7 6 7 8 6 6 4 2 4 6 6 6 5 6 1 4 3 4 6 8 9 10 12 12 13 13 13 13 12 11 11 10 10 9 9 8 7 6 4 4 4 4 4 5
8 5 6 6 4 4 4 5 5 7 7 7 5 6 3 1 1 0 2 5 8 9 10 11 11 11 12 12 12 11 11 10 9 10 9 9 8 7 6 5 4 5 4 4
9 8 6 6 6 7 8 8 6 7 6 5 1 5 2 2 2 2 1 3 6 8 9 9 10 11 11 12 12 11 11 10 10 10 9 9 8 8 7 6 5 5 4 4
10 10 9 7 8 6 9 10 7 7 6 4 4 4 1 3 2 2 1 2 4 6 7 8 9 9 10 11 11 11 10 10 10 9 9 8 8 7 6 6 6 5 5 5
8 7 7 5 6 8 8 9 8 9 9 8 5 3 2 0 1 2 3 3 4 5 6 6 7 8 9 10 10 10 10 9 8 8 8 7 7 7 6 6 6 6 5 5
7 8 7 6 6 4 6 6 7 9 8 9 7 6 3 1 1 1 2 3 3 4 5 6 7 7 8 9 10 10 9 8 7 6 6 5 6 6 6 6 6 6 6 5
10 9 8 9 9 9 7 8 8 8 8 9 8 3 1 1 1 1 2 3 3 4 5 6 6 6 7 7 8 8 8 8 7 7 6 5 5 5 5 5 5 5 5 5
9 9 9 10 6 5 9 9 10 9 8 9 10 4 3 2 1 1 2 3 3 4 4 5 5 6 6 7 7 7 7 7 7 7 6 6 5 5 5 5 5 5 5 5
6 8 10 10 9 9 9 9 11 11 9 10 12 5 4 3 2 2 2 3 4 4 4 4 5 5 5 5 5 6 6 6 6 6 6 6 5 5 6 5 5 5 4 4
6 10 12 13 8 8 10 11 12 13 11 11 12 7 5 4 3 2 2 3 3 4 4 4 4 4 4 4 4 5 5 5 6 6 5 5 5 5 5 4 4 4 4 4
6 11 12 12 9 9 11 12 12 14 13 13 11 10 7 5 4 2 2 3 3 3 4 3 4 4 4 4 4 4 4 4 4 4 4 4 3 3 3 3 3 3 4 4
6 9 11 12 12 11 13 13 13 14 13 13 12 9 4 3 3 3 3 4 4 3 3 3 3 3 3 3 3 3 3 3 4 3 3 3 3 3 3 2 2 3 3 3
7 8 10 13 11 12 15 12 12 11 11 11 12 7 3 5 5 4 4 4 4 3 3 3 3 3 3 3 3 3 3 4 4 4 4 3 3 3 3 3 2 3 3 3
7 9 9 10 10 15 8 4 8 10 9 8 7 5 6 5 4 4 4 4 3 3 3 3 3 3 2 2 2 2 2 3 3 3 3 3 3 3 3 3 3 3 3 3
8 8 8 10 13 13 7 5 7 9 9 6 6 5 5 4 5 5 3 3 3 3 3 3 2 3 2 2 2 2 2 2 2 2 2 2 2 2 3 3 3 3 4 4
7 9 10 10 13 13 6 4 3 7 9 5 6 6 7 7 6 3 4 4 3 3 3 3 3 3 3 2 1 1 1 1 2 2 2 2 2 3 3 3 4 4 4 5
9 9 13 13 13 10 2 3 4 9 4 3 4 5 7 7 3 3 4 4 4 4 3 3 3 3 2 2 1 1 0 0 1 1 1 2 2 3 3 3 3 4 4 4
9 9 10 11 13 8 4 4 4 3 3 2 4 5 5 4 3 4 5 4 4 4 4 4 3 2 2 2 2 1 1 1 1 1 1 1 2 3 2 3 3 4 4 4
7 6 6 6 4 2 0 2 3 3 3 3 4 4 4 5 4 4 5 5 4 4 4 3 3 3 2 2 1 1 1 1 1 1 1 2 2 2 3 3 3 4 4 4
5 2 4 4 2 1 1 2 3 3 3 3 3 3 4 4 4 4 4 4 4 4 3 3 3 2 2 1 1 1 1 1 1 1 2 3 3 3 3 3 4 4 4 4
3 4 5 6 3 2 2 1 1 2 1 1 1 2 3 4 4 4 3 3 3 3 3 3 3 2 2 1 0 1 1 1 2 2 3 3 3 3 3 3 2 3 3 3
6 6 7 5 2 3 2 2 2 1 1 0 1 1 2 3 3 3 3 3 3 3 3 3 3 2 2 1 1 1 2 2 3 3 3 3 3 3 3 3 2 0 2 1
Wind_Direction
209 230 228 228 254 305 292 277 264 108 151 244 241 228 178 179 193 193 193 193 193 194 190 188 191 193 192 191 192 193 196 190 193 196 203 206 209 214 215 223 226 235 239 229
214 228 241 244 227 245 251 254 240 167 146 268 270 248 191 187 200 203 202 201 199 193 188 190 193 195 196 195 195 194 196 194 197 199 207 213 219 224 227 231 225 238 241 239
228 214 192 225 226 237 242 256 270 270 236 230 267 220 185 188 198 204 209 207 204 199 194 192 196 197 197 197 197 198 198 198 202 202 202 206 210 225 224 220 221 233 241 245
230 217 217 233 237 247 242 248 259 248 249 254 265 278 163 180 190 202 207 206 206 201 200 197 196 197 199 198 196 196 195 199 200 200 207 213 220 228 232 237 229 233 236 244
218 218 230 239 244 251 262 250 246 252 258 268 250 274 181 163 186 198 207 208 207 203 201 199 199 197 198 195 192 192 193 198 199 202 205 214 227 230 230 231 227 237 230 235
239 227 239 241 237 227 196 208 219 240 253 259 266 269 276 92 359 331 196 202 203 201 197 195 194 191 192 189 189 188 189 194 197 201 205 212 223 229 233 234 236 233 226 228
213 206 202 210 207 190 212 233 240 238 237 253 223 262 297 22 8 341 308 193 195 192 190 187 187 186 186 186 187 186 187 192 195 201 206 209 217 223 227 234 235 246 247 239
215 209 195 206 230 231 230 249 259 270 272 263 210 252 344 31 21 13 67 137 168 179 180 178 181 184 184 184 185 185 187 192 195 200 206 211 217 224 227 228 242 242 253 254
229 218 182 199 225 240 231 241 265 269 272 274 259 250 241 72 67 69 83 104 142 162 167 168 171 178 180 181 182 185 185 190 195 198 201 211 216 227 236 238 238 244 245 247
241 239 203 185 196 216 261 247 244 256 265 269 258 250 259 229 232 110 86 91 113 150 163 165 167 169 176 179 179 184 185 188 193 197 202 202 213 223 233 242 246 252 250 251
237 235 216 203 223 224 209 225 242 254 263 271 273 260 60 190 183 158 110 91 106 137 152 159 163 167 169 174 175 179 181 182 188 198 201 204 205 212 221 231 240 244 249 245
225 238 235 223 220 255 237 237 234 246 252 257 271 265 110 134 124 129 110 97 109 129 142 150 151 157 165 168 171 176 182 186 190 191 195 205 205 208 216 221 229 237 243 248
208 232 231 222 208 208 225 229 237 249 251 254 261 248 137 143 158 135 119 108 114 128 137 144 145 152 163 168 169 174 185 191 191 190 196 201 204 210 219 223 227 235 242 249
226 237 241 249 250 224 225 228 232 241 250 254 260 260 225 213 211 170 137 131 126 129 133 133 138 147 153 158 165 175 183 187 188 186 190 201 210 216 222 228 232 238 243 246
229 237 240 253 258 249 242 235 230 238 254 262 268 263 247 224 213 182 156 146 141 139 138 140 143 141 149 154 164 172 174 174 179 182 187 196 205 208 217 227 231 234 240 243
228 242 237 242 242 245 248 242 236 240 248 255 261 260 250 201 186 180 181 169 160 153 148 146 145 148 156 162 167 167 164 158 158 168 179 183 195 205 210 221 232 237 239 245
220 228 238 243 238 246 245 238 236 239 246 254 254 253 203 197 196 196 192 179 167 159 150 151 152 151 150 157 160 166 164 165 174 184 194 194 205 214 217 222 222 233 239 244
227 232 237 246 237 245 248 232 238 243 243 246 254 234 205 206 191 187 182 176 168 161 141 131 140 139 142 143 141 149 161 171 186 196 204 211 222 228 231 233 236 239 242 244
222 222 238 241 241 246 230 211 219 234 240 232 230 212 192 180 178 182 176 170 166 153 133 123 117 118 117 125 131 144 161 173 193 206 218 229 229 230 236 246 253 257 255 253
198 217 235 239 248 250 237 172 228 237 235 213 216 204 193 192 220 198 164 166 159 142 130 122 116 108 112 116 130 153 178 194 226 237 241 250 241 238 248 256 263 265 260 262
201 214 231 239 246 248 100 140 199 231 253 173 207 206 203 213 255 132 147 158 156 139 129 123 118 107 103 109 117 111 83 312 312 293 278 277 266 251 255 259 264 270 270 275
224 224 226 237 242 237 104 177 229 313 352 221 218 213 213 211 152 147 156 158 155 146 137 132 121 109 101 112 129 119 70 10 353 317 292 285 278 273 273 271 274 277 279 271
234 257 253 250 254 49 327 274 328 309 279 250 227 217 203 193 177 168 167 167 161 158 151 148 142 130 117 108 114 110 43 10 352 330 308 298 291 280 281 273 274 269 267 277
210 255 249 247 225 273 270 276 291 297 291 270 245 219 202 195 189 178 172 165 162 165 165 164 160 153 141 132 105 54 16 14 336 295 290 287 288 286 281 278 283 287 294 297
245 218 235 243 240 226 226 275 316 343 331 294 250 219 205 195 190 182 176 173 174 173 175 177 179 180 176 176 209 320 316 307 291 285 287 288 285 284 279 282 304 299 319 323
228 233 244 257 259 266 277 306 298 295 303 297 207 190 177 178 182 188 184 181 181 183 182 189 195 196 206 224 247 288 289 284 274 267 270 279 285 286 280 273 272 133 239 233
Height
1515 1512 1510 1509 1509 1510 1510 1512 1514 1513 1512 1512 1513 1513 1516 1521 1524 1526 1530 1532 1535 1537 1540 1542 1544 1546 1549 1550 1552 1554 1556 1558 1559 1561 1563 1564 1565 1566 1567 1567 1567 1567 1567 1567
1513 1511 1508 1509 1510 1512 1512 1514 1513 1511 1511 1513 1511 1512 1512 1517 1521 1523 1525 1528 1531 1534 1537 1540 1542 1544 1546 1548 1550 1552 1554 1556 1558 1559 1561 1562 1564 1565 1566 1566 1565 1566 1566 1566
1510 1508 1509 1510 1511 1512 1511 1512 1512 1513 1512 1510 1511 1512 1511 1513 1517 1521 1523 1525 1528 1530 1533 1536 1538 1541 1543 1545 1547 1550 1552 1554 1556 1558 1560 1561 1562 1563 1564 1564 1564 1564 1564 1564
1506 1506 1509 1510 1509 1508 1512 1507 1510 1512 1514 1513 1513 1519 1509 1508 1512 1516 1519 1522 1524 1527 1530 1532 1535 1537 1540 1543 1545 1547 1549 1551 1553 1555 1557 1559 1560 1561 1562 1562 1562 1562 1562 1562
1505 1505 1508 1509 1507 1506 1508 1507 1508 1509 1511 1513 1510 1515 1508 1504 1510 1511 1514 1517 1520 1523 1526 1529 1531 1534 1537 1540 1542 1545 1547 1549 1551 1552 1554 1556 1558 1559 1560 1560 1560 1560 1560 1560
1502 1504 1505 1505 1505 1506 1507 1509 1509 1508 1507 1522 1513 1515 1513 1503 1507 1508 1511 1514 1517 1520 1523 1526 1528 1531 1534 1537 1540 1542 1544 1545 1548 1549 1551 1553 1555 1556 1557 1557 1558 1558 1558 1558
1504 1503 1503 1505 1505 1507 1507 1512 1520 1523 1522 1520 1508 1514 1511 1504 1506 1508 1510 1512 1515 1517 1520 1523 1526 1528 1531 1534 1536 1539 1541 1543 1545 1547 1549 1550 1552 1553 1553 1554 1555 1555 1556 1557
1507 1507 1501 1501 1502 1504 1504 1505 1521 1530 1525 1514 1511 1513 1505 1503 1507 1509 1510 1511 1513 1515 1518 1520 1523 1526 1529 1531 1534 1536 1538 1540 1542 1544 1545 1547 1548 1550 1551 1551 1552 1553 1553 1554
1500 1503 1497 1500 1500 1500 1503 1503 1499 1508 1511 1516 1510 1506 1503 1503 1506 1508 1509 1510 1512 1514 1516 1519 1521 1524 1527 1529 1531 1534 1536 1537 1539 1541 1542 1544 1545 1547 1548 1548 1549 1550 1550 1550
1494 1504 1496 1500 1501 1502 1499 1498 1503 1508 1524 1525 1515 1509 1506 1505 1505 1507 1508 1510 1512 1514 1516 1518 1521 1522 1525 1528 1529 1532 1533 1535 1537 1538 1540 1542 1542 1544 1545 1545 1546 1546 1546 1546
1493 1501 1499 1499 1501 1499 1503 1504 1503 1503 1506 1519 1521 1512 1498 1502 1504 1506 1508 1511 1513 1514 1515 1518 1520 1521 1524 1526 1528 1529 1531 1532 1534 1536 1537 1539 1540 1541 1542 1542 1542 1542 1543 1543
1494 1495 1499 1497 1495 1496 1496 1497 1500 1509 1512 1508 1511 1509 1497 1501 1504 1507 1509 1511 1513 1514 1516 1517 1519 1521 1523 1525 1526 1528 1529 1531 1532 1534 1535 1536 1537 1538 1538 1539 1539 1539 1539 1539
1494 1497 1507 1504 1502 1499 1497 1496 1496 1495 1500 1505 1509 1507 1497 1502 1505 1507 1509 1512 1513 1515 1516 1517 1518 1520 1522 1524 1525 1527 1528 1529 1530 1531 1532 1533 1534 1535 1535 1536 1536 1536 1536 1536
1496 1493 1499 1503 1495 1490 1496 1496 1495 1497 1499 1501 1500 1499 1498 1501 1504 1507 1510 1512 1513 1515 1516 1517 1518 1520 1521 1523 1524 1525 1526 1527 1528 1529 1530 1531 1532 1532 1533 1533 1533 1533 1533 1533
1494 1493 1491 1488 1486 1487 1489 1492 1494 1496 1494 1497 1494 1494 1495 1499 1504 1507 1510 1512 1513 1514 1515 1516 1518 1519 1520 1522 1523 1524 1524 1525 1526 1527 1528 1529 1529 1530 1530 1530 1530 1530 1530 1530
1493 1493 1492 1493 1488 1488 1490 1488 1490 1492 1491 1491 1492 1494 1493 1499 1503 1507 1509 1511 1512 1513 1514 1515 1516 1518 1518 1519 1521 1522 1522 1523 1524 1525 1526 1527 1527 1528 1528 1528 1527 1527 1527 1527
1491 1494 1496 1493 1487 1490 1493 1486 1487 1488 1488 1490 1492 1493 1495 1499 1502 1505 1508 1509 1511 1512 1513 1514 1515 1516 1517 1518 1519 1520 1521 1522 1522 1523 1524 1525 1525 1525 1525 1525 1525 1524 1524 1523
1494 1495 1492 1490 1495 1506 1486 1482 1483 1487 1488 1489 1490 1493 1496 1499 1503 1505 1507 1508 1509 1511 1512 1512 1513 1515 1516 1517 1517 1518 1519 1520 1521 1521 1522 1522 1523 1523 1522 1522 1522 1521 1521 1520
1491 1494 1492 1490 1493 1489 1484 1483 1485 1488 1488 1488 1490 1493 1497 1499 1502 1504 1505 1507 1508 1509 1510 1511 1512 1513 1514 1515 1516 1516 1517 1518 1518 1519 1519 1519 1519 1519 1519 1519 1518 1517 1517 1517
1491 1492 1491 1490 1495 1495 1483 1482 1486 1488 1490 1489 1491 1493 1496 1498 1497 1499 1503 1505 1507 1508 1509 1510 1511 1512 1512 1513 1514 1514 1515 1515 1516 1516 1516 1516 1516 1516 1516 1516 1515 1514 1514 1513
1489 1491 1490 1489 1490 1481 1482 1485 1488 1493 1489 1489 1491 1493 1495 1496 1496 1500 1502 1504 1506 1506 1507 1508 1510 1510 1511 1511 1512 1512 1513 1513 1514 1514 1514 1513 1513 1513 1513 1512 1512 1511 1511 1510
1483 1484 1487 1486 1489 1486 1486 1486 1487 1488 1490 1490 1491 1493 1495 1496 1498 1499 1501 1503 1504 1505 1506 1507 1508 1509 1509 1509 1510 1510 1510 1511 1511 1511 1511 1510 1510 1510 1510 1509 1508 1508 1507 1506
1481 1481 1479 1481 1484 1487 1488 1488 1490 1490 1490 1491 1491 1493 1494 1495 1497 1499 1501 1502 1503 1504 1505 1506 1507 1507 1507 1508 1508 1508 1508 1508 1508 1508 1508 1507 1507 1507 1506 1506 1505 1505 1504 1503
1482 1487 1484 1485 1484 1487 1489 1489 1490 1490 1491 1491 1491 1492 1493 1495 1496 1498 1499 1501 1502 1503 1504 1505 1505 1506 1506 1506 1506 1506 1506 1505 1505 1505 1505 1504 1504 1503 1503 1502 1502 1501 1500 1499
1482 1486 1484 1485 1486 1488 1489 1490 1490 1490 1491 1491 1491 1492 1493 1494 1495 1496 1498 1499 1500 1501 1502 1503 1504 1504 1504 1504 1504 1504 1503 1503 1503 1502 1502 1502 1501 1500 1499 1499 1498 1498 1497 1496
1483 1484 1484 1482 1485 1487 1488 1489 1489 1489 1489 1490 1490 1491 1492 1493 1493 1495 1496 1497 1498 1499 1500 1501 1502 1502 1502 1502 1502 1501 1501 1500 1500 1499 1499 1499 1499 1498 1497 1496 1495 1494 1494 1492